Time,TemperatureF,DewpointF,PressureIn,WindDirection,WindDirectionDegrees,WindSpeedMPH,WindSpeedGustMPH,Humidity,HourlyPrecipIn,Conditions,Clouds,dailyrainin,SoftwareType,DateUTC
2013-02-12 00:01:00,-1.0,-5.0,30.23,NW,317,0.0,1.0,82,0.00,,,-99.99,,2013-02-12 07:01:00,
2013-02-12 00:21:00,-2.0,-6.0,30.24,NW,317,0.0,0.0,83,0.00,,,-99.99,,2013-02-12 07:21:00,
2013-02-12 00:31:00,-2.0,-6.0,30.24,NW,317,0.0,0.0,83,0.00,,,-99.99,,2013-02-12 07:31:00,
2013-02-12 00:41:00,-2.0,-6.0,30.24,NW,317,0.0,0.0,83,0.00,,,-99.99,,2013-02-12 07:41:00,
2013-02-12 00:52:00,-3.0,-7.0,30.25,NW,317,0.0,0.0,83,0.00,,,-99.99,,2013-02-12 07:52:00,
2013-02-12 01:01:00,-4.0,-8.0,30.25,NW,317,0.0,0.0,83,0.00,,,-99.99,,2013-02-12 08:01:00,
2013-02-12 01:21:00,-4.0,-8.0,30.26,NW,317,0.0,1.0,84,0.00,,,-99.99,,2013-02-12 08:21:00,
2013-02-12 01:31:00,-4.0,-8.0,30.27,NW,317,0.0,0.0,83,0.00,,,-99.99,,2013-02-12 08:31:00,
2013-02-12 01:41:00,-4.0,-8.0,30.27,NW,317,0.0,0.0,83,0.00,,,-99.99,,2013-02-12 08:41:00,
2013-02-12 01:52:00,-5.0,-9.0,30.26,NW,317,0.0,0.0,84,0.00,,,-99.99,,2013-02-12 08:52:00,
2013-02-12 02:01:00,-5.0,-9.0,30.27,NW,317,0.0,0.0,83,0.00,,,-99.99,,2013-02-12 09:01:00,
2013-02-12 02:11:00,-5.0,-9.0,30.27,NW,317,0.0,0.0,83,0.00,,,-99.99,,2013-02-12 09:11:00,
2013-02-12 02:21:00,-6.0,-10.0,30.27,NW,317,0.0,0.0,82,0.00,,,-99.99,,2013-02-12 09:21:00,
2013-02-12 02:31:00,-6.0,-10.0,30.28,NW,317,0.0,0.0,81,0.00,,,-99.99,,2013-02-12 09:31:00,
2013-02-12 02:41:00,-6.0,-10.0,30.28,NW,317,0.0,0.0,81,0.00,,,-99.99,,2013-02-12 09:41:00,
2013-02-12 04:31:00,-10.0,-14.0,30.25,NW,317,0.0,0.0,81,0.00,,,-99.99,,2013-02-12 11:31:00,
2013-02-12 04:41:00,-10.0,-14.0,30.25,NW,317,0.0,0.0,81,0.00,,,-99.99,,2013-02-12 11:41:00,
2013-02-12 04:52:00,-11.0,-15.0,30.26,NW,317,0.0,0.0,80,0.00,,,-99.99,,2013-02-12 11:52:00,
2013-02-12 05:01:00,-12.0,-16.0,30.28,NW,317,0.0,0.0,80,0.00,,,-99.99,,2013-02-12 12:01:00,
2013-02-12 05:21:00,-12.0,-16.0,30.30,NW,317,0.0,0.0,80,0.00,,,-99.99,,2013-02-12 12:21:00,
2013-02-12 05:32:00,-13.0,-17.0,30.32,NW,317,0.0,0.0,80,0.00,,,-99.99,,2013-02-12 12:32:00,
2013-02-12 05:41:00,-13.0,-17.0,30.32,NW,317,0.0,0.0,80,0.00,,,-99.99,,2013-02-12 12:41:00,
2013-02-12 05:52:00,-13.0,-17.0,30.32,NW,317,0.0,0.0,80,0.00,,,-99.99,,2013-02-12 12:52:00,
2013-02-12 06:01:00,-13.0,-17.0,30.35,NW,317,0.0,0.0,80,0.00,,,-99.99,,2013-02-12 13:01:00,
2013-02-12 06:11:00,-13.0,-17.0,30.36,NW,317,0.0,1.0,80,0.00,,,-99.99,,2013-02-12 13:11:00,
2013-02-12 06:21:00,-13.0,-17.0,30.36,NW,317,0.0,1.0,80,0.00,,,-99.99,,2013-02-12 13:21:00,
2013-02-12 06:31:00,-15.0,-19.0,30.38,NW,317,0.0,2.0,80,0.00,,,-99.99,,2013-02-12 13:31:00,
2013-02-12 06:41:00,-15.0,-19.0,30.38,NW,317,0.0,2.0,80,0.00,,,-99.99,,2013-02-12 13:41:00,
2013-02-12 06:52:00,-14.0,-18.0,30.39,NW,317,0.0,2.0,81,0.00,,,-99.99,,2013-02-12 13:52:00,
2013-02-12 07:01:00,-14.0,-18.0,30.40,NW,317,1.0,1.0,80,0.00,,,-99.99,,2013-02-12 14:01:00,
2013-02-12 07:21:00,-14.0,-18.0,30.42,NW,317,0.0,0.0,80,0.00,,,-99.99,,2013-02-12 14:21:00,
2013-02-12 07:31:00,-15.0,-19.0,30.43,SSE,155,1.0,2.0,80,0.00,,,-99.99,,2013-02-12 14:31:00,
2013-02-12 07:41:00,-15.0,-19.0,30.43,SSE,155,1.0,2.0,80,0.00,,,-99.99,,2013-02-12 14:41:00,
2013-02-12 07:52:00,-15.0,-19.0,30.45,SSE,155,0.0,0.0,80,0.00,,,-99.99,,2013-02-12 14:52:00,
2013-02-12 08:01:00,-13.0,-17.0,30.46,South,184,0.0,1.0,81,0.00,,,-99.99,,2013-02-12 15:01:00,
2013-02-12 08:11:00,-13.0,-17.0,30.47,South,184,0.0,0.0,80,0.00,,,-99.99,,2013-02-12 15:11:00,
2013-02-12 08:21:00,-13.0,-17.0,30.47,South,184,0.0,0.0,80,0.00,,,-99.99,,2013-02-12 15:21:00,
2013-02-12 08:32:00,-13.0,-17.0,30.48,South,184,0.0,1.0,81,0.00,,,-99.99,,2013-02-12 15:32:00,
2013-02-12 08:41:00,-13.0,-17.0,30.48,South,184,0.0,1.0,81,0.00,,,-99.99,,2013-02-12 15:41:00,
2013-02-12 08:52:00,-11.0,-15.0,30.49,South,184,0.0,0.0,81,0.00,,,-99.99,,2013-02-12 15:52:00,
2013-02-12 09:01:00,-10.0,-14.0,30.49,South,184,0.0,2.0,81,0.00,,,-99.99,,2013-02-12 16:01:00,
2013-02-12 09:21:00,-7.0,-11.0,30.50,South,184,0.0,0.0,83,0.00,,,-99.99,,2013-02-12 16:21:00,
2013-02-12 09:31:00,-6.0,-10.0,30.50,South,184,1.0,2.0,83,0.00,,,-99.99,,2013-02-12 16:31:00,
2013-02-12 09:41:00,-6.0,-10.0,30.50,South,184,1.0,2.0,83,0.00,,,-99.99,,2013-02-12 16:41:00,
2013-02-12 09:52:00,-2.0,-6.0,30.50,South,184,0.0,2.0,84,0.00,,,-99.99,,2013-02-12 16:52:00,
2013-02-12 10:01:00,-1.0,-5.0,30.50,South,184,0.0,1.0,83,0.00,,,-99.99,,2013-02-12 17:01:00,
2013-02-12 10:21:00,1.0,-2.0,30.50,South,184,0.0,2.0,85,0.00,,,-99.99,,2013-02-12 17:21:00,
2013-02-12 10:31:00,4.0,1.0,30.51,South,184,0.0,1.0,85,0.00,,,-99.99,,2013-02-12 17:31:00,
2013-02-12 10:41:00,4.0,1.0,30.51,South,184,0.0,1.0,85,0.00,,,-99.99,,2013-02-12 17:41:00,
2013-02-12 10:52:00,7.0,3.0,30.52,South,184,0.0,1.0,82,0.00,,,-99.99,,2013-02-12 17:52:00,
2013-02-12 11:01:00,9.0,4.0,30.52,South,184,1.0,3.0,78,0.00,,,-99.99,,2013-02-12 18:01:00,
2013-02-12 11:11:00,11.0,4.0,30.51,South,184,0.0,1.0,72,0.00,,,-99.99,,2013-02-12 18:11:00,
2013-02-12 11:22:00,11.0,4.0,30.51,South,184,0.0,1.0,72,0.00,,,-99.99,,2013-02-12 18:22:00,
2013-02-12 11:31:00,13.0,6.0,30.51,South,184,0.0,2.0,74,0.00,,,-99.99,,2013-02-12 18:31:00,
2013-02-12 11:41:00,13.0,6.0,30.51,South,184,0.0,2.0,74,0.00,,,-99.99,,2013-02-12 18:41:00,
2013-02-12 11:52:00,16.0,6.0,30.51,South,184,0.0,1.0,65,0.00,,,-99.99,,2013-02-12 18:52:00,
2013-02-12 12:01:00,20.0,8.0,30.51,South,184,1.0,4.0,59,0.00,,,-99.99,,2013-02-12 19:01:00,
2013-02-12 12:11:00,20.0,8.0,30.51,South,184,1.0,4.0,59,0.00,,,-99.99,,2013-02-12 19:11:00,
2013-02-12 12:21:00,24.0,9.0,30.50,SSE,156,0.0,4.0,51,0.00,,,-99.99,,2013-02-12 19:21:00,
2013-02-12 12:31:00,26.0,9.0,30.50,SSE,156,0.0,4.0,48,0.00,,,-99.99,,2013-02-12 19:31:00,
2013-02-12 12:41:00,26.0,9.0,30.50,SSE,156,0.0,4.0,48,0.00,,,-99.99,,2013-02-12 19:41:00,
2013-02-12 12:52:00,27.0,11.0,30.50,SW,232,4.0,11.0,50,0.00,,,-99.99,,2013-02-12 19:52:00,
2013-02-12 13:01:00,27.0,12.0,30.50,SSE,163,5.0,9.0,52,0.00,,,-99.99,,2013-02-12 20:01:00,
2013-02-12 13:11:00,27.0,12.0,30.50,SSE,163,5.0,9.0,52,0.00,,,-99.99,,2013-02-12 20:11:00,
2013-02-12 13:21:00,29.0,12.0,30.50,SE,142,4.0,8.0,49,0.04,,,-99.99,,2013-02-12 20:21:00,
2013-02-12 13:31:00,28.0,11.0,30.49,SSE,164,5.0,7.0,48,0.04,,,-99.99,,2013-02-12 20:31:00,
2013-02-12 13:41:00,28.0,11.0,30.49,SSE,164,5.0,7.0,48,0.04,,,-99.99,,2013-02-12 20:41:00,
2013-02-12 13:51:00,28.0,9.0,30.50,SSW,212,0.0,8.0,45,0.00,,,-99.99,,2013-02-12 20:51:00,
2013-02-12 14:01:00,30.0,12.0,30.49,SSE,155,2.0,6.0,46,0.05,,,-99.99,,2013-02-12 21:01:00,
2013-02-12 14:11:00,30.0,12.0,30.49,SSE,155,2.0,6.0,46,0.05,,,-99.99,,2013-02-12 21:11:00,
2013-02-12 14:21:00,29.0,10.0,30.48,SE,139,2.0,6.0,45,0.06,,,-99.99,,2013-02-12 21:21:00,
2013-02-12 14:31:00,29.0,9.0,30.48,WSW,243,5.0,9.0,43,0.05,,,-99.99,,2013-02-12 21:31:00,
2013-02-12 14:41:00,30.0,11.0,30.47,SSW,213,3.0,7.0,44,0.04,,,-99.99,,2013-02-12 21:41:00,
2013-02-12 14:51:00,30.0,11.0,30.47,SSW,213,3.0,7.0,44,0.04,,,-99.99,,2013-02-12 21:51:00,
2013-02-12 15:01:00,30.0,10.0,30.47,SSW,211,0.0,3.0,43,0.00,,,-99.99,,2013-02-12 22:01:00,
2013-02-12 15:11:00,30.0,10.0,30.47,SSW,211,0.0,3.0,43,0.00,,,-99.99,,2013-02-12 22:11:00,
2013-02-12 15:21:00,30.0,11.0,30.47,West,261,1.0,6.0,45,0.04,,,-99.99,,2013-02-12 22:21:00,
2013-02-12 15:31:00,29.0,10.0,30.48,SSE,150,1.0,8.0,45,0.00,,,-99.99,,2013-02-12 22:31:00,
2013-02-12 15:41:00,29.0,10.0,30.48,SSE,150,1.0,8.0,45,0.00,,,-99.99,,2013-02-12 22:41:00,
2013-02-12 15:52:00,29.0,10.0,30.48,SSE,156,2.0,5.0,45,0.00,,,-99.99,,2013-02-12 22:52:00,
2013-02-12 16:01:00,29.0,12.0,30.47,SSW,192,5.0,8.0,48,0.00,,,-99.99,,2013-02-12 23:01:00,
2013-02-12 16:11:00,28.0,10.0,30.48,SSE,165,4.0,8.0,47,0.00,,,-99.99,,2013-02-12 23:11:00,
2013-02-12 16:21:00,28.0,10.0,30.48,SSE,165,4.0,8.0,47,0.00,,,-99.99,,2013-02-12 23:21:00,
2013-02-12 16:31:00,28.0,10.0,30.48,SE,143,5.0,8.0,47,0.00,,,-99.99,,2013-02-12 23:31:00,
2013-02-12 16:41:00,28.0,10.0,30.48,SE,143,5.0,8.0,47,0.00,,,-99.99,,2013-02-12 23:41:00,
2013-02-12 16:52:00,28.0,10.0,30.48,SSW,198,5.0,7.0,47,0.00,,,-99.99,,2013-02-12 23:52:00,
2013-02-12 17:02:00,28.0,10.0,30.49,South,169,2.0,7.0,46,0.00,,,-99.99,,2013-02-13 00:02:00,
2013-02-12 17:11:00,28.0,10.0,30.49,South,169,2.0,7.0,46,0.00,,,-99.99,,2013-02-13 00:11:00,
2013-02-12 17:21:00,28.0,10.0,30.49,SSW,200,4.0,7.0,47,0.00,,,-99.99,,2013-02-13 00:21:00,
2013-02-12 17:32:00,27.0,10.0,30.50,SSW,200,1.0,5.0,49,0.00,,,-99.99,,2013-02-13 00:32:00,
2013-02-12 17:42:00,27.0,10.0,30.50,SSW,200,1.0,5.0,49,0.00,,,-99.99,,2013-02-13 00:42:00,
2013-02-12 17:52:00,25.0,10.0,30.50,SSW,201,1.0,4.0,52,0.00,,,-99.99,,2013-02-13 00:52:00,
2013-02-12 18:01:00,24.0,10.0,30.51,SSW,201,3.0,4.0,54,0.00,,,-99.99,,2013-02-13 01:01:00,
2013-02-12 18:11:00,24.0,10.0,30.51,SSW,201,3.0,4.0,54,0.00,,,-99.99,,2013-02-13 01:11:00,
2013-02-12 18:21:00,23.0,10.0,30.52,SW,231,2.0,4.0,57,0.00,,,-99.99,,2013-02-13 01:21:00,
2013-02-12 18:31:00,21.0,9.0,30.53,SW,231,0.0,0.0,59,0.00,,,-99.99,,2013-02-13 01:31:00,
2013-02-12 18:42:00,21.0,9.0,30.53,SW,231,0.0,0.0,59,0.00,,,-99.99,,2013-02-13 01:42:00,
2013-02-12 18:52:00,18.0,8.0,30.54,SW,231,0.0,0.0,65,0.00,,,-99.99,,2013-02-13 01:52:00,
2013-02-12 19:01:00,17.0,9.0,30.55,SW,231,0.0,0.0,69,0.00,,,-99.99,,2013-02-13 02:01:00,
2013-02-12 19:21:00,16.0,8.0,30.56,SW,231,0.0,0.0,70,0.00,,,-99.99,,2013-02-13 02:21:00,
2013-02-12 19:31:00,14.0,7.0,30.57,SW,231,0.0,0.0,72,0.00,,,-99.99,,2013-02-13 02:31:00,
2013-02-12 19:41:00,14.0,7.0,30.57,SW,231,0.0,0.0,72,0.00,,,-99.99,,2013-02-13 02:41:00,
2013-02-12 19:52:00,13.0,6.0,30.57,SW,231,0.0,0.0,72,0.00,,,-99.99,,2013-02-13 02:52:00,
2013-02-12 20:01:00,12.0,5.0,30.58,SW,231,0.0,0.0,74,0.00,,,-99.99,,2013-02-13 03:01:00,
2013-02-12 20:11:00,11.0,5.0,30.58,SW,231,0.0,0.0,76,0.00,,,-99.99,,2013-02-13 03:11:00,
2013-02-12 20:21:00,11.0,5.0,30.58,SW,231,0.0,0.0,76,0.00,,,-99.99,,2013-02-13 03:21:00,
2013-02-12 20:31:00,10.0,4.0,30.58,SW,231,0.0,0.0,77,0.00,,,-99.99,,2013-02-13 03:31:00,
2013-02-12 20:41:00,10.0,4.0,30.58,SW,231,0.0,0.0,77,0.00,,,-99.99,,2013-02-13 03:41:00,
2013-02-12 20:52:00,9.0,4.0,30.59,SW,231,0.0,2.0,80,0.00,,,-99.99,,2013-02-13 03:52:00,
2013-02-12 21:01:00,8.0,3.0,30.58,SW,231,0.0,0.0,80,0.00,,,-99.99,,2013-02-13 04:01:00,
2013-02-12 21:11:00,8.0,3.0,30.58,SW,231,0.0,0.0,80,0.00,,,-99.99,,2013-02-13 04:11:00,
2013-02-12 21:21:00,7.0,2.0,30.59,SW,231,0.0,0.0,81,0.00,,,-99.99,,2013-02-13 04:21:00,
2013-02-12 21:31:00,7.0,2.0,30.59,SW,231,0.0,0.0,81,0.00,,,-99.99,,2013-02-13 04:31:00,
2013-02-12 21:41:00,7.0,2.0,30.59,SW,231,0.0,0.0,81,0.00,,,-99.99,,2013-02-13 04:41:00,
2013-02-12 21:52:00,6.0,2.0,30.59,SW,231,0.0,0.0,82,0.00,,,-99.99,,2013-02-13 04:52:00,
2013-02-12 22:01:00,6.0,2.0,30.60,SW,231,0.0,0.0,82,0.00,,,-99.99,,2013-02-13 05:01:00,
2013-02-12 22:11:00,5.0,1.0,30.59,SW,231,0.0,0.0,83,0.00,,,-99.99,,2013-02-13 05:11:00,
2013-02-12 22:22:00,5.0,1.0,30.59,SW,231,0.0,0.0,83,0.00,,,-99.99,,2013-02-13 05:22:00,
2013-02-12 22:31:00,4.0,0.0,30.60,SW,231,0.0,0.0,83,0.00,,,-99.99,,2013-02-13 05:31:00,
2013-02-12 22:41:00,4.0,0.0,30.60,SW,231,0.0,0.0,83,0.00,,,-99.99,,2013-02-13 05:41:00,
2013-02-12 22:52:00,3.0,0.0,30.60,SW,231,0.0,2.0,85,0.00,,,-99.99,,2013-02-13 05:52:00,
2013-02-12 23:01:00,2.0,-2.0,30.60,SW,231,0.0,0.0,84,0.00,,,-99.99,,2013-02-13 06:01:00,
2013-02-12 23:11:00,2.0,-2.0,30.60,SW,231,0.0,0.0,84,0.00,,,-99.99,,2013-02-13 06:11:00,
2013-02-12 23:21:00,2.0,-2.0,30.60,SW,231,0.0,0.0,84,0.00,,,-99.99,,2013-02-13 06:21:00,
2013-02-12 23:31:00,1.0,-3.0,30.60,SW,231,0.0,0.0,84,0.00,,,-99.99,,2013-02-13 06:31:00,
2013-02-12 23:41:00,1.0,-3.0,30.60,SW,231,0.0,1.0,84,0.00,,,-99.99,,2013-02-13 06:41:00,
2013-02-12 23:52:00,1.0,-3.0,30.60,SW,231,0.0,1.0,84,0.00,,,-99.99,,2013-02-13 06:52:00,